Regional Weather Roundup
Issued by NWS

Home | Current Version | Previous Version | Graphics & Text | Print | Product List | Glossary On
Versions: 1 2 3 4 5 6 7 8 9 10 11 12 13 14 15 16 17 18 19 20 21 22 23 24 25 26 27 28 29 30 31 32 33 34 35 36 37 38 39 40 41 42 43 44 45 46 47 48 49 50
000
ASUS45 KSLC 070910
RWRUT

UTAH REGIONAL WEATHER ROUNDUP
NATIONAL WEATHER SERVICE SALT LAKE CITY UT
200 AM MST SUN FEB 07 2016

UTZ001>011-023>025-071000-

NORTHERN UTAH

CITY           SKY/WX    TMP DP  RH WIND       PRES   REMARKS
BRIGHAM CITY   CLOUDY    22  19  87 CALM      30.50F
HILL AFB       CLOUDY    28  16  60 SE3       30.47F
LOGAN          MOCLDY    23  20  88 N7        30.46S FOG     WCI  15
OGDEN          PTCLDY    28  21  75 S8        30.48F WCI  20
PROVO AIRPORT  PTCLDY    16  12  86 CALM      30.51S
SALT LAKE CITY MOCLDY    27  20  75 SE5       30.49F WCI  22
VERNAL         CLOUDY     8   5  87 CALM      30.44F
WENDOVER       CLEAR     25  19  80 CALM      30.48F
HEBER CITY     PTCLDY    14  10  85 CALM      30.46S
WEST JORDAN    PTCLDY    27  21  80 S5        30.49F WCI  21

$$

UTZ012>022-026-027-071000-

SOUTHERN/CENTRAL UTAH

CITY           SKY/WX    TMP DP  RH WIND       PRES   REMARKS
BLANDING       PTCLDY    22  15  75 CALM      30.49S
BRYCE CANYON   CLEAR      9   4  80 W10       30.44S WCI  -5
CEDAR CITY     PTCLDY     9   8  96 CALM      30.44S FOG
DELTA          CLOUDY     3   0  88 CALM      30.51S VSB 1/4
HANKSVILLE     CLOUDY    18  18 100 CALM      30.55F
MILFORD        MOCLDY    -2  -6  83 S7        30.48S WCI -15
MOAB/CYNLANDS  MOCLDY     7   3  84 CALM      30.50S
PRICE          PTCLDY    12   6  77 E5        30.43F WCI   4
ST GEORGE      MOSUNNY   36  23  60 CALM      30.45R
KANAB          CLEAR     32  25  74 NW13      30.44S WCI  22

$$

REGIONAL REPORTS     COLORADO/ARIZONA

CITY           SKY/WX    TMP DP  RH WIND       PRES   REMARKS
CRAIG, CO      CLOUDY    10   6  84 CALM      30.38F
GRAND JUNCTION CLOUDY    14  12  92 CALM      30.49F
RIFLE          CLOUDY    14   8  77 CALM      30.46F
MONTROSE       CLOUDY    11   6  81 SE6       30.49F WCI   1
CORTEZ         CLOUDY    13   8  81 NE8       30.43R WCI   2
PAGE, AZ       CLEAR     29  22  75 CALM      30.46R
GRAND CANYON   CLEAR     20  12  71 CALM      30.40F
KINGMAN        CLEAR     33  23  66 E7        30.33R WCI  27
FLAGSTAFF      CLEAR     16  12  84 CALM      30.40F

$$

REGIONAL REPORTS    NEVADA/IDAHO/WYOMING

CITY           SKY/WX    TMP DP  RH WIND       PRES   REMARKS
LAS VEGAS, NV  CLEAR     48  26  42 NW6       30.32R
ELY            PTCLDY     9   2  73 S20       30.46F WCI -10
ELKO           PTCLDY    13   8  81 NE6       30.50S WCI   4
POCATELLO, ID  CLOUDY    35  26  69 SW14      30.43S WCI  26
BURLEY         MOCLDY    33  26  75 SW10      30.42F WCI  25
EVANSTON, WY   CLOUDY    28  14  55 SW23      30.37F WCI  14
ROCK SPRINGS   CLOUDY    26  15  63 W15       30.34R WCI  14

$$



USA.gov is the U.S. government's official web portal to all federal, state and local government web resources and services.